Regional Weather Roundup
Issued by NWS Newport/Morehead, NC

Current Version | Previous Version | Graphics & Text | Print | Product List | Glossary On
Versions: 1 2 3 4 5 6 7 8 9 10 11 12 13 14 15 16 17 18 19 20 21 22 23 24 25 26 27 28 29 30 31 32 33 34 35 36 37 38 39 40 41 42 43 44 45 46 47 48 49 50
000 ASUS42 KMHX 300010 RWRMHX WEATHER ROUNDUP FOR EASTERN NORTH CAROLINA NATIONAL WEATHER SERVICE NEWPORT/MOREHEAD CITY NC 800 PM EDT FRI AUG 29 2014 NOTE: "FAIR" INDICATES FEW OR NO CLOUDS BELOW 12,000 FEET WITH NO SIGNIFICANT WEATHER AND/OR OBSTRUCTIONS TO VISIBILITY NCZ015>017-031-032-045>047-102-103-300100- NORTH COAST CITY SKY/WX TMP DP RH WIND PRES REMARKS EDENTON CLOUDY 75 67 75 E5 30.15R ELIZABETH CITY MOCLDY 74 66 76 E9 30.16S KITTY HAWK CLOUDY 76 66 71 E7 30.14S MANTEO CLOUDY 75 66 72 E12 30.15S $$ NCZ045>047-081-094-103-104-300100- CENTRAL COAST CITY SKY/WX TMP DP RH WIND PRES REMARKS FRISCO PTCLDY 77 75 93 E12 30.13R SWANQUARTER N/A 75 N/A N/A NE3 30.09S $$ NCZ095-097-098-100-101-300100- SOUTHERN COAST CITY SKY/WX TMP DP RH WIND PRES REMARKS BEAUFORT MOCLDY 80 74 81 NE5 30.13R CEDAR ISLAND N/A 79 N/A N/A NE12 30.15S JACKSONVILLE CLEAR 80 67 64 SE7 30.11R NEWPORT NOT AVBL PINEY ISLAND MOCLDY 80 77 90 NE10 30.12S WILMINGTON CLEAR 80 73 79 S5 30.10R $$ NCZ011>013-027>030-043-044-078>080-089-090>093-098-300100- COASTAL PLAIN CITY SKY/WX TMP DP RH WIND PRES REMARKS AHOSKIE CLOUDY 74 69 82 CALM 30.15R CLINTON CLEAR 82 75 78 E3 30.10R ELIZABETHTOWN CLEAR 83 68 60 S6 30.09R GOLDSBORO CLEAR 78 78 98 E9 30.10R GREENVILLE MOCLDY 77 72 83 E6 30.14S HAVELOCK CLOUDY 79 73 82 E5 30.14R KENANSVILLE MOCLDY 81 72 75 E5 30.12R KINSTON PTCLDY 79 73 83 NE6 30.13R NEW BERN CLEAR 79 71 76 E7 30.14R RICHLANDS PTCLDY 81 72 74 E5 30.12R ROANOKE RAPIDS NOT AVBL ROCKY MOUNT CLOUDY 77 69 76 E3 30.13S WASHINGTON CLEAR 75 69 81 E5 30.14S WHITEVILLE CLEAR 81 68 65 SE3 30.09R $$ AMZ130-135-150-152-154-156-158-170-250-252-270-ANZ085-086-088-633-658-670-300100- MARINE OBSERVATIONS STATION/POSITION TIME TEMP WIND PRES WAVE SWELL AIR SEA DIR/SP/G HT/PER HT/PER (UTC) (F) (DEG/KT/KT) (MB) (FT/S) (FT/S) CHESAPEAKE LIGHT 2300 74 100/ 11/ 12 1022.0 BUOY 44014 0000 76 76 80/ 10/ 12 1021.1 3/ 9 3/ 9 DUCK 0000 76 78 70/ 14/ 16 1020.5 2E DUCK 0000 N/A 3/ 8 OREGON INLET 0000 76 79 50/ 11/ 16 1020.7 BUOY 44095 0000 77 N/A 4/ 8 2/14 20E OREGON INLET NOT AVBL HATTERAS CG 0000 80 82 100/ 9/ 14 1020.6 DIAMOND BUOY 0000 77 60/ 14/ 14 1019.9 3/ 8 3/ 8 CAPE LOOKOUT 2300 81 90/ 3/ 3 1019.5 BEAUFORT LAB 0000 80 82 60/ 5/ 7 1019.5 30 SE NEW RIVER 0000 82 83 150/ 8/ 10 1019.7 2/ 8 2/ 8 5 SE WRIGHTSVILL 0000 78 82 160/ 12/ 14 N/A BUOY 41002 NOT AVBL BUOY 41004 0000 83 84 170/ 8/ 8 1018.4 3/ 8 2/ 8 $$

USA.gov is the U.S. government's official web portal to all federal, state and local government web resources and services.